Lid_Strength_Index
3 2 2 1 1 1 1 1 1 0 0 1 1 1 1 0 -0 -1 -1 -1 -1 -1 -1 -1 -1 -1 -0 -0 -0 -0 0 1 -0 1 1 0 -0 -0 -0 -1 -1 -1 -1
4 3 2 2 2 1 1 1 1 0 0 0 0 0 0 0 -0 -1 -1 -1 -1 -1 -1 -1 -1 -1 -0 -0 -0 0 1 1 0 2 2 3 2 1 0 -0 -0 -1 -1
5 4 3 2 2 2 1 1 1 0 0 0 -0 0 -0 0 1 0 0 -1 -1 -1 -1 -1 -1 -1 -0 0 0 0 0 1 1 1 3 4 5 2 1 1 0 -0 -0
4 4 3 3 2 2 1 1 1 1 0 0 0 1 1 2 1 0 -0 -1 -1 -1 -1 -1 -1 -1 -0 -0 -0 -0 0 0 2 1 1 1 1 4 5 1 1 0 0
4 4 3 3 2 1 1 1 1 1 1 0 1 1 1 1 0 -0 0 -0 -0 -1 -1 -1 -1 -0 -0 -0 -0 -0 -0 0 1 1 1 2 2 1 3 5 2 1 0
4 4 3 2 2 1 1 1 1 1 1 1 1 1 1 1 1 1 1 1 0 -0 -1 -1 -1 -1 -1 -0 -0 -0 -0 0 0 1 1 1 2 2 3 4 3 4 2
4 4 4 3 3 2 2 1 1 2 1 1 1 1 1 1 1 1 1 1 0 0 -0 -1 -0 -0 -1 -1 -1 -0 -0 -0 0 0 1 1 1 1 1 2 3 3 1
4 4 3 3 3 2 2 2 2 2 1 1 1 1 0 1 1 0 0 0 1 0 -1 -1 -1 -1 -1 -1 -1 -0 -0 -0 0 -0 0 0 0 -0 1 2 3 4 3
4 4 3 3 3 2 2 2 2 1 1 1 1 1 1 0 1 0 -0 -0 -0 -0 -0 -1 -0 -0 -1 -1 -1 -0 -0 -0 -1 -0 -0 0 0 0 -0 1 1 3 5
4 4 3 3 2 2 2 1 1 1 1 1 1 1 1 0 0 -0 0 0 -0 -0 -0 -0 -0 -0 -0 -1 -1 -0 -0 -0 -0 -0 -0 -0 -0 0 0 0 1 1 2
4 4 3 3 2 2 2 1 1 1 1 1 1 1 1 0 0 0 0 -0 -0 -0 -0 -0 -0 -0 -0 -0 -0 -0 -0 0 0 -0 0 0 -0 0 1 1 1 1 1
4 4 3 3 3 2 2 2 1 1 1 1 1 1 1 0 0 0 -0 -0 0 -0 -0 -0 0 0 -0 -0 0 0 0 0 1 0 0 0 0 0 0 1 1 1 1
4 4 3 3 3 2 2 2 1 1 1 1 1 1 1 1 1 0 0 -0 -0 0 -0 -0 0 0 0 0 -0 0 0 0 0 0 0 0 0 1 1 1 1 1 1
4 4 4 3 3 3 2 2 2 1 1 1 1 1 1 1 1 1 0 0 -0 0 0 0 -0 0 0 0 0 0 0 0 0 0 0 0 1 1 1 1 0 1 1
5 4 4 3 3 3 2 2 1 1 1 1 1 1 1 0 0 0 1 0 0 0 0 0 -0 -0 0 0 0 0 0 0 0 0 0 0 0 1 0 1 0 1 1
5 4 4 3 3 3 2 2 2 1 1 1 1 1 1 1 1 1 1 1 1 1 1 1 1 0 0 2 2 0 0 0 1 1 0 -0 0 0 2 2 2 0 1
4 4 3 3 3 2 2 2 1 1 1 1 1 1 1 1 1 1 1 1 1 1 1 1 1 1 0 3 2 2 0 0 1 1 1 1 0 0 -0 2 3 3 2
4 3 3 3 2 2 1 1 1 1 1 1 1 1 1 1 1 1 1 1 1 1 2 2 1 1 1 3 3 3 1 1 1 1 0 1 0 0 0 0 0 0 0
3 2 2 2 2 2 1 1 1 1 1 1 1 1 1 1 1 1 1 1 1 1 1 1 1 1 2 5 4 3 2 1 1 1 0 0 0 1 3 0 1 1 1
2 2 2 2 1 1 1 1 1 1 1 1 1 0 0 0 1 1 1 1 1 1 1 1 1 1 1 3 4 2 1 2 2 1 1 3 1 4 5 1 1 2 1
2 2 2 2 1 1 1 2 2 2 1 1 1 0 0 0 0 0 0 1 1 1 1 1 1 1 1 1 4 4 1 2 2 2 1 1 5 7 7 6 1 1 1
2 2 2 2 1 1 1 2 2 1 1 0 1 1 0 1 0 0 1 0 1 1 2 2 2 1 -0 3 3 4 6 4 1 2 1 1 6 8 9 6 6 7 5
2 2 2 2 1 1 1 2 1 1 1 1 1 1 1 0 0 1 1 2 1 2 2 2 2 2 1 0 5 7 7 6 3 1 2 5 8 9 9 7 7 7 3
2 2 2 2 2 1 1 1 1 0 1 1 1 1 1 1 1 1 1 1 2 2 2 2 2 2 2 1 0 1 0 4 3 3 1 4 5 6 4 5 4 2 2
2 2 2 2 2 1 1 1 0 0 1 1 1 1 1 1 1 1 1 1 1 1 2 2 2 2 2 2 5 4 1 1 2 3 4 4 3 3 3 1 1 1 2
2 2 2 2 2 1 1 1 0 0 1 2 2 2 2 1 1 1 2 3 5 6 8 8 5 1 6 9 11 11 10 9 8 2 4 4 3 2 2 2 1 1 2